Weather History for Las Cruces, NM

Change the Weather History Date:

Wednesday, February 20, 2013

  Actual Average Record
Temperature  
Mean Temperature 44 °F -  
Max Temperature 57 °F 57 °F 62 °F (2014)
Min Temperature 30 °F 35 °F 33 °F (2014)
Degree Days  
Heating Degree Days 22    
Moisture  
Dew Point 29 °F    
Average Humidity 66    
Maximum Humidity 99    
Minimum Humidity 20    
Precipitation  
Precipitation 0.02 in - - ()
Sea Level Pressure  
Sea Level Pressure 29.71 in    
Wind  
Wind Speed 14 mph (SW)    
Max Wind Speed 38 mph    
Max Gust Speed 55 mph    
Visibility 8 miles    
Events Fog , Rain , Snow    
Averages and records for this station are not official NWS values.
T = Trace of Precipitation, MM = Missing Value Source: NWS Daily Summary

Daily Weather History Graph

Daily Weather History Graph

Search for Another Location

Airport:

Trip Planner

Search our weather history database for the weather conditions in past years. The results will help you decide how hot, cold, wet, or windy it might be!

Date:

Astronomy

Feb. 20, 2013 Rise Set
Actual Time 6:44 AM MST 5:58 PM MST
Civil Twilight 6:19 AM MST 6:23 PM MST
Nautical Twilight 5:51 AM MST 6:51 PM MST
Astronomical Twilight 5:22 AM MST 7:20 PM MST
Moon 1:32 PM MST (2/20) 2:57 AM MST (2/20)
Length of Visible Light 12h 03m
Length of Day
11h 13m
Waxing Gibbous, 76% of the Moon is Illuminated
Feb 20
Waxing Gibbous
Feb 25
Full
Mar 4
Last Quarter
Mar 11
New
Mar 19
First Quarter

Hourly Weather History & Observations

Time (MST) Temp. Windchill Dew Point Humidity Pressure Visibility Wind Dir Wind Speed Gust Speed Precip Events Conditions
12:15 AM 41.9 °F 36.9 °F 41.4 °F 98% 29.83 in 5.0 mi South 8.1 mph - N/A   Clear
12:35 AM 42.4 °F 37.0 °F 41.9 °F 98% 29.83 in 10.0 mi South 9.2 mph - N/A   Clear
12:55 AM 42.4 °F 36.1 °F 41.2 °F 95% 29.81 in 10.0 mi SSE 11.5 mph - N/A   Scattered Clouds
1:15 AM 42.1 °F 36.6 °F 41.2 °F 97% 29.80 in 10.0 mi SSE 9.2 mph - N/A   Scattered Clouds
1:35 AM 41.7 °F 36.7 °F 40.8 °F 97% 29.80 in 10.0 mi South 8.1 mph - N/A   Clear
1:55 AM 41.5 °F 35.9 °F 40.3 °F 95% 29.79 in 10.0 mi South 9.2 mph - N/A   Clear
2:15 AM 41.4 °F 35.7 °F 40.1 °F 95% 29.79 in 10.0 mi South 9.2 mph - N/A   Clear
2:35 AM 40.5 °F 35.8 °F 39.4 °F 96% 29.78 in 10.0 mi South 6.9 mph - N/A   Clear
2:55 AM 40.5 °F 35.1 °F 39.6 °F 97% 29.77 in 10.0 mi South 8.1 mph - N/A   Clear
3:15 AM 40.5 °F 35.1 °F 39.7 °F 97% 29.77 in 10.0 mi SSW 8.1 mph - N/A   Clear
3:35 AM 40.5 °F 35.1 °F 40.1 °F 99% 29.76 in 10.0 mi SSW 8.1 mph - N/A   Clear
3:55 AM 40.5 °F 35.8 °F 39.7 °F 97% 29.75 in 10.0 mi SSW 6.9 mph - N/A   Clear
4:15 AM 39.4 °F 34.5 °F 38.8 °F 98% 29.75 in 7.0 mi SSW 6.9 mph - N/A   Clear
4:35 AM 38.8 °F 33.8 °F 38.5 °F 99% 29.74 in 7.0 mi SSW 6.9 mph - N/A   Clear
4:55 AM 37.8 °F 32.5 °F 37.4 °F 99% 29.73 in 2.5 mi SSW 6.9 mph - N/A   Clear
5:15 AM 36.9 °F 31.4 °F 36.5 °F 99% 29.73 in 7.0 mi SSW 6.9 mph - N/A   Clear
5:35 AM 38.8 °F 33.8 °F 38.5 °F 99% 29.73 in 10.0 mi SSW 6.9 mph - N/A   Clear
5:55 AM 36.0 °F 31.1 °F 35.6 °F 99% 29.74 in 4.0 mi SW 5.8 mph - N/A   Clear
6:15 AM 36.0 °F 30.3 °F 35.6 °F 99% 29.74 in 7.0 mi SSW 6.9 mph - N/A   Clear
6:35 AM 37.6 °F 31.6 °F 37.4 °F 99% 29.74 in 10.0 mi SSW 8.1 mph - N/A   Clear
6:55 AM 34.9 °F 29.0 °F 34.2 °F 97% 29.74 in 4.0 mi WSW 6.9 mph - N/A   Clear
7:15 AM 33.4 °F 28.1 °F 33.1 °F 99% 29.75 in 0.2 mi West 5.8 mph - N/A Fog Fog
7:35 AM 35.6 °F 31.7 °F 35.4 °F 99% 29.75 in 0.5 mi SW 4.6 mph - N/A Fog Fog
7:55 AM 38.7 °F 32.9 °F 38.5 °F 99% 29.75 in 10.0 mi SSW 8.1 mph - N/A   Clear
8:15 AM 43.9 °F 37.2 °F 33.3 °F 66% 29.75 in 10.0 mi SW 13.8 mph 18.4 mph N/A   Clear
8:35 AM 44.8 °F 39.4 °F 33.1 °F 64% 29.75 in 10.0 mi SSW 10.4 mph - N/A   Clear
8:55 AM 46.4 °F 40.7 °F 31.1 °F 55% 29.74 in 10.0 mi SSW 12.7 mph - N/A   Clear
9:15 AM 48.6 °F - 27.1 °F 43% 29.74 in 10.0 mi SW 21.9 mph 25.3 mph N/A   Clear
9:35 AM 49.8 °F - 26.2 °F 40% 29.74 in 10.0 mi SW 19.6 mph 25.3 mph N/A   Clear
9:55 AM 50.5 °F - 25.2 °F 37% 29.74 in 10.0 mi WSW 15.0 mph - N/A   Clear
10:15 AM 51.4 °F - 23.5 °F 34% 29.74 in 10.0 mi SW 25.3 mph 32.2 mph N/A   Clear
10:35 AM 51.6 °F - 22.3 °F 32% 29.73 in 10.0 mi SSW 21.9 mph 29.9 mph N/A   Clear
10:55 AM 52.7 °F - 21.7 °F 30% 29.72 in 10.0 mi SW 24.2 mph 29.9 mph N/A   Clear
11:15 AM 54.0 °F - 19.2 °F 26% 29.71 in 10.0 mi SW 25.3 mph 34.5 mph N/A   Clear
11:35 AM 54.9 °F - 17.4 °F 23% 29.70 in 10.0 mi WSW 29.9 mph 43.7 mph N/A   Clear
11:55 AM 55.9 °F - 16.2 °F 21% 29.69 in 5.0 mi SW 27.6 mph 44.9 mph N/A   Haze
12:15 PM 55.9 °F - 16.5 °F 21% 29.67 in 4.0 mi WSW 32.2 mph 44.9 mph N/A   Haze
12:35 PM 56.7 °F - 15.6 °F 20% 29.65 in 3.0 mi SW 29.9 mph 44.9 mph N/A   Haze
12:55 PM 56.7 °F - 16.9 °F 21% 29.64 in 7.0 mi WSW 31.1 mph 44.9 mph N/A   Mostly Cloudy
1:15 PM 56.8 °F - 16.2 °F 20% 29.62 in 2.0 mi WSW 29.9 mph 51.8 mph N/A   Haze
1:35 PM 56.8 °F - 18.7 °F 23% 29.62 in 7.0 mi West 23.0 mph 40.3 mph N/A   Mostly Cloudy
1:55 PM 57.0 °F - 18.9 °F 23% 29.62 in 10.0 mi WSW 20.7 mph 35.7 mph N/A   Scattered Clouds
2:15 PM 56.7 °F - 18.7 °F 23% 29.60 in 10.0 mi WSW 23.0 mph 28.8 mph N/A   Clear
2:35 PM 57.2 °F - 19.2 °F 23% 29.60 in 10.0 mi WSW 25.3 mph 35.7 mph N/A   Clear
2:55 PM 57.0 °F - 19.0 °F 23% 29.59 in 10.0 mi West 26.5 mph 33.4 mph N/A   Clear
3:15 PM 56.7 °F - 18.5 °F 23% 29.58 in 10.0 mi WSW 24.2 mph 33.4 mph N/A   Clear
3:35 PM 57.0 °F - 18.9 °F 23% 29.58 in 10.0 mi WSW 25.3 mph 35.7 mph N/A   Clear
3:55 PM 56.3 °F - 18.1 °F 23% 29.58 in 10.0 mi West 26.5 mph 43.7 mph N/A   Clear
4:15 PM 55.8 °F - 19.0 °F 24% 29.58 in 10.0 mi WSW 26.5 mph 34.5 mph N/A   Clear
4:35 PM 55.0 °F - 19.6 °F 25% 29.58 in 10.0 mi WSW 24.2 mph 33.4 mph N/A   Clear
4:55 PM 52.9 °F - 19.4 °F 27% 29.58 in 7.0 mi WSW 27.6 mph 39.1 mph N/A   Clear
5:15 PM 52.0 °F - 20.5 °F 29% 29.58 in 10.0 mi West 21.9 mph 36.8 mph N/A   Clear
5:35 PM 50.0 °F - 23.9 °F 36% 29.60 in 3.0 mi West 33.4 mph 55.2 mph N/A Rain Light Rain
5:55 PM 44.1 °F 34.6 °F 32.0 °F 63% 29.62 in 10.0 mi West 26.5 mph 33.4 mph N/A   Scattered Clouds
6:15 PM 41.4 °F 30.7 °F 33.3 °F 73% 29.63 in 10.0 mi West 27.6 mph 38.0 mph N/A   Clear
6:35 PM 39.4 °F 28.1 °F 33.3 °F 79% 29.64 in 10.0 mi West 27.6 mph 36.8 mph N/A   Scattered Clouds
6:55 PM 37.9 °F 25.3 °F 31.8 °F 79% 29.66 in 10.0 mi West 32.2 mph 40.3 mph N/A   Mostly Cloudy
7:15 PM 35.1 °F 20.4 °F 32.0 °F 89% 29.69 in 5.0 mi West 38.0 mph 47.2 mph N/A Snow Light Snow
7:35 PM 33.1 °F 20.1 °F 32.0 °F 96% 29.71 in 1.2 mi West 25.3 mph 33.4 mph N/A Snow Light Snow
8:15 PM 34.9 °F 23.3 °F 30.4 °F 84% 29.74 in 10.0 mi West 21.9 mph 29.9 mph N/A   Overcast
8:35 PM 34.0 °F 24.2 °F 31.1 °F 89% 29.73 in 10.0 mi West 15.0 mph 24.2 mph N/A Snow Light Snow
8:55 PM 33.6 °F 24.6 °F 30.4 °F 88% 29.72 in 10.0 mi WSW 12.7 mph - N/A   Overcast
9:15 PM 33.3 °F 23.2 °F 30.2 °F 89% 29.74 in 10.0 mi WSW 15.0 mph - N/A   Overcast
9:35 PM 33.3 °F 22.5 °F 29.7 °F 87% 29.74 in 10.0 mi WSW 17.3 mph - N/A   Overcast
9:55 PM 32.7 °F 22.5 °F 28.8 °F 85% 29.75 in 10.0 mi WSW 15.0 mph 20.7 mph N/A   Overcast
10:15 PM 32.2 °F 21.8 °F 27.5 °F 83% 29.76 in 10.0 mi WSW 15.0 mph - N/A   Mostly Cloudy
10:35 PM 32.0 °F 22.5 °F 26.1 °F 79% 29.76 in 10.0 mi WSW 12.7 mph - N/A   Scattered Clouds
10:55 PM 31.6 °F 21.2 °F 24.6 °F 75% 29.76 in 10.0 mi WSW 15.0 mph - N/A   Clear
11:15 PM 30.9 °F 18.4 °F 23.2 °F 73% 29.76 in 10.0 mi WSW 20.7 mph 24.2 mph N/A   Clear
11:35 PM 31.1 °F 18.3 °F 22.3 °F 70% 29.76 in 10.0 mi West 21.9 mph 29.9 mph N/A   Clear
11:55 PM 30.2 °F 15.7 °F 22.3 °F 72% 29.76 in 10.0 mi WSW 27.6 mph 33.4 mph N/A   Scattered Clouds